{"data":{"norad_id":59889,"epoch":"2026-09-20T21:50:40.803936Z","epoch_age_seconds":138998,"freshness":"FRESH","line1":"1 59889U 24100E   26263.91019449 -.00002204  00000+0 -70580-4 0  9995","line2":"2 59889  43.0016  99.4138 0001207 271.6969  88.3744 15.27579506131050","mean_motion":15.27579506,"eccentricity":0.0001207,"inclination_deg":43.0016,"raan_deg":99.4138,"arg_perigee_deg":271.6969,"mean_anomaly_deg":88.3744,"bstar":-7.058e-5,"rev_number":13105,"period_min":94.266779198333,"perigee_km":482.22242991343,"apogee_km":483.8787205941,"semimajor_km":6861.1875752538,"source":"CELESTRAK","updated_at":"2026-09-22T09:00:49.106057Z"}}